Precipitable_Water
0.50 0.51 0.51 0.52 0.51 0.43 0.32 0.28 0.19 0.36 0.40 0.22 0.23 0.19 0.22 0.23 0.18 0.19 0.21 0.19 0.18 0.18 0.17 0.15 0.16 0.21 0.26 0.38 0.38 0.30 0.40 0.32 0.27 0.32 0.40 0.39 0.36 0.34 0.34 0.27 0.23 0.25 0.23 0.20
0.45 0.49 0.51 0.52 0.53 0.53 0.36 0.20 0.23 0.38 0.35 0.17 0.19 0.23 0.23 0.24 0.19 0.17 0.17 0.15 0.19 0.19 0.15 0.14 0.17 0.18 0.27 0.34 0.36 0.34 0.40 0.35 0.25 0.28 0.35 0.41 0.35 0.35 0.36 0.35 0.30 0.25 0.21 0.21
0.45 0.49 0.51 0.51 0.54 0.56 0.42 0.26 0.18 0.23 0.28 0.28 0.23 0.22 0.21 0.20 0.23 0.19 0.19 0.18 0.19 0.17 0.14 0.17 0.15 0.17 0.23 0.29 0.34 0.44 0.43 0.38 0.31 0.21 0.20 0.30 0.31 0.33 0.35 0.33 0.28 0.26 0.25 0.27
0.45 0.46 0.49 0.51 0.53 0.57 0.45 0.32 0.19 0.25 0.19 0.23 0.26 0.26 0.24 0.22 0.18 0.20 0.20 0.16 0.17 0.17 0.13 0.14 0.14 0.15 0.18 0.25 0.37 0.40 0.37 0.31 0.36 0.37 0.34 0.32 0.32 0.34 0.37 0.36 0.32 0.29 0.29 0.31
0.44 0.45 0.48 0.51 0.55 0.55 0.42 0.30 0.27 0.23 0.21 0.28 0.25 0.25 0.23 0.21 0.19 0.19 0.16 0.16 0.17 0.16 0.14 0.14 0.12 0.16 0.17 0.20 0.28 0.33 0.37 0.30 0.37 0.35 0.42 0.38 0.34 0.37 0.37 0.38 0.37 0.38 0.35 0.33
0.43 0.45 0.47 0.53 0.57 0.56 0.42 0.44 0.42 0.29 0.18 0.23 0.23 0.23 0.24 0.21 0.22 0.19 0.20 0.20 0.18 0.14 0.15 0.17 0.16 0.17 0.18 0.22 0.23 0.28 0.30 0.32 0.33 0.27 0.39 0.38 0.33 0.37 0.39 0.39 0.40 0.39 0.33 0.35
0.42 0.44 0.49 0.52 0.55 0.56 0.50 0.48 0.41 0.27 0.14 0.19 0.23 0.26 0.28 0.24 0.24 0.20 0.20 0.22 0.19 0.19 0.23 0.20 0.15 0.17 0.23 0.31 0.34 0.35 0.29 0.30 0.30 0.28 0.34 0.22 0.33 0.40 0.41 0.38 0.45 0.45 0.43 0.44
0.40 0.44 0.48 0.51 0.54 0.55 0.49 0.52 0.41 0.29 0.18 0.17 0.23 0.27 0.26 0.27 0.26 0.21 0.19 0.20 0.23 0.26 0.21 0.13 0.11 0.21 0.24 0.28 0.34 0.35 0.37 0.31 0.28 0.26 0.24 0.32 0.39 0.42 0.41 0.38 0.38 0.46 0.44 0.45
0.40 0.45 0.47 0.50 0.53 0.52 0.50 0.50 0.52 0.36 0.23 0.17 0.24 0.25 0.27 0.22 0.19 0.18 0.19 0.24 0.27 0.24 0.17 0.16 0.13 0.13 0.19 0.21 0.23 0.33 0.35 0.36 0.29 0.27 0.23 0.20 0.31 0.44 0.52 0.50 0.33 0.50 0.47 0.45
0.40 0.42 0.43 0.48 0.52 0.52 0.52 0.48 0.52 0.38 0.24 0.23 0.26 0.23 0.23 0.27 0.23 0.20 0.21 0.21 0.21 0.24 0.15 0.15 0.14 0.15 0.20 0.16 0.18 0.21 0.24 0.26 0.23 0.26 0.24 0.28 0.38 0.44 0.52 0.31 0.32 0.47 0.50 0.46
0.40 0.39 0.41 0.44 0.48 0.49 0.47 0.44 0.52 0.38 0.27 0.22 0.26 0.29 0.25 0.26 0.26 0.20 0.24 0.21 0.21 0.19 0.13 0.14 0.14 0.15 0.18 0.18 0.22 0.23 0.22 0.21 0.20 0.23 0.23 0.20 0.39 0.38 0.31 0.34 0.43 0.46 0.50 0.51
0.37 0.38 0.39 0.41 0.43 0.46 0.50 0.38 0.50 0.49 0.33 0.23 0.35 0.36 0.38 0.36 0.35 0.30 0.28 0.23 0.24 0.26 0.19 0.17 0.18 0.15 0.19 0.18 0.15 0.24 0.20 0.24 0.22 0.24 0.24 0.34 0.38 0.36 0.39 0.40 0.40 0.43 0.47 0.50
0.37 0.37 0.38 0.39 0.40 0.45 0.48 0.42 0.46 0.41 0.26 0.21 0.25 0.24 0.31 0.37 0.37 0.39 0.23 0.28 0.32 0.29 0.31 0.24 0.20 0.17 0.21 0.14 0.16 0.22 0.21 0.25 0.22 0.23 0.29 0.31 0.35 0.38 0.37 0.38 0.39 0.43 0.46 0.49
0.36 0.35 0.36 0.36 0.38 0.44 0.46 0.39 0.46 0.36 0.30 0.19 0.18 0.29 0.25 0.34 0.36 0.36 0.39 0.37 0.39 0.37 0.34 0.26 0.21 0.17 0.23 0.18 0.20 0.17 0.17 0.19 0.19 0.21 0.26 0.29 0.33 0.30 0.33 0.35 0.37 0.40 0.44 0.47
0.30 0.31 0.33 0.34 0.38 0.44 0.44 0.44 0.42 0.42 0.32 0.21 0.19 0.24 0.29 0.32 0.38 0.38 0.40 0.38 0.34 0.33 0.28 0.26 0.22 0.24 0.22 0.24 0.20 0.15 0.18 0.16 0.15 0.15 0.20 0.21 0.23 0.27 0.29 0.31 0.32 0.36 0.39 0.43
0.28 0.30 0.31 0.33 0.40 0.44 0.38 0.27 0.43 0.48 0.45 0.28 0.18 0.25 0.23 0.29 0.32 0.35 0.33 0.32 0.32 0.33 0.29 0.28 0.30 0.32 0.26 0.18 0.14 0.17 0.17 0.19 0.19 0.17 0.21 0.22 0.23 0.25 0.28 0.27 0.31 0.36 0.38 0.43
0.26 0.27 0.30 0.32 0.40 0.41 0.31 0.28 0.40 0.48 0.47 0.29 0.20 0.18 0.25 0.31 0.30 0.28 0.26 0.32 0.32 0.34 0.31 0.28 0.25 0.24 0.24 0.17 0.12 0.16 0.18 0.19 0.19 0.20 0.19 0.18 0.21 0.21 0.25 0.28 0.31 0.35 0.38 0.41
0.23 0.24 0.27 0.31 0.37 0.42 0.36 0.45 0.45 0.48 0.36 0.31 0.19 0.18 0.23 0.31 0.23 0.21 0.27 0.28 0.34 0.31 0.27 0.25 0.22 0.21 0.20 0.15 0.16 0.18 0.18 0.18 0.18 0.19 0.20 0.20 0.20 0.22 0.24 0.27 0.30 0.31 0.34 0.37
0.21 0.22 0.26 0.27 0.26 0.24 0.29 0.45 0.48 0.46 0.34 0.22 0.21 0.16 0.15 0.25 0.21 0.24 0.26 0.31 0.24 0.27 0.21 0.20 0.18 0.16 0.14 0.16 0.17 0.17 0.18 0.16 0.16 0.17 0.17 0.18 0.19 0.20 0.22 0.23 0.25 0.27 0.30 0.33
0.21 0.20 0.15 0.13 0.22 0.38 0.40 0.35 0.29 0.29 0.29 0.27 0.19 0.20 0.15 0.20 0.19 0.20 0.22 0.26 0.23 0.18 0.20 0.22 0.15 0.14 0.17 0.18 0.19 0.19 0.19 0.19 0.18 0.15 0.15 0.16 0.16 0.18 0.19 0.21 0.23 0.24 0.27 0.29
0.17 0.13 0.14 0.23 0.33 0.27 0.22 0.17 0.16 0.17 0.17 0.20 0.18 0.18 0.14 0.22 0.17 0.18 0.23 0.21 0.21 0.15 0.17 0.16 0.13 0.13 0.16 0.19 0.19 0.20 0.20 0.20 0.20 0.20 0.20 0.19 0.19 0.19 0.19 0.20 0.22 0.24 0.25 0.26
0.21 0.23 0.29 0.28 0.22 0.18 0.14 0.13 0.15 0.15 0.13 0.17 0.15 0.16 0.18 0.19 0.24 0.20 0.21 0.18 0.18 0.13 0.17 0.13 0.11 0.14 0.17 0.18 0.19 0.19 0.20 0.20 0.20 0.21 0.20 0.21 0.20 0.21 0.20 0.21 0.21 0.23 0.24 0.25
0.25 0.22 0.20 0.18 0.18 0.15 0.14 0.12 0.13 0.14 0.17 0.16 0.15 0.14 0.18 0.20 0.22 0.20 0.18 0.15 0.14 0.17 0.12 0.11 0.13 0.16 0.17 0.18 0.19 0.19 0.21 0.21 0.20 0.20 0.21 0.21 0.21 0.22 0.21 0.21 0.22 0.22 0.23 0.25
0.16 0.15 0.13 0.15 0.16 0.18 0.17 0.17 0.16 0.18 0.17 0.16 0.16 0.15 0.16 0.19 0.18 0.18 0.14 0.16 0.14 0.11 0.10 0.11 0.14 0.16 0.18 0.19 0.19 0.19 0.19 0.20 0.20 0.20 0.20 0.21 0.21 0.21 0.22 0.23 0.23 0.23 0.22 0.23
0.17 0.18 0.14 0.17 0.21 0.21 0.21 0.20 0.18 0.18 0.18 0.17 0.16 0.16 0.16 0.16 0.15 0.15 0.14 0.12 0.11 0.11 0.11 0.13 0.16 0.18 0.18 0.18 0.19 0.19 0.19 0.20 0.20 0.20 0.20 0.20 0.21 0.21 0.21 0.22 0.22 0.22 0.23 0.23
0.20 0.19 0.16 0.18 0.18 0.17 0.18 0.18 0.17 0.18 0.18 0.18 0.17 0.15 0.13 0.13 0.13 0.12 0.12 0.11 0.10 0.12 0.14 0.16 0.17 0.17 0.18 0.18 0.19 0.20 0.20 0.20 0.20 0.20 0.21 0.21 0.21 0.20 0.21 0.22 0.22 0.22 0.22 0.22
0.18 0.16 0.19 0.17 0.16 0.15 0.15 0.14 0.14 0.16 0.14 0.13 0.14 0.11 0.12 0.14 0.12 0.11 0.12 0.11 0.13 0.14 0.15 0.17 0.18 0.17 0.18 0.19 0.19 0.19 0.20 0.19 0.20 0.20 0.20 0.20 0.21 0.21 0.21 0.20 0.21 0.21 0.22 0.22
Wind_Speed
55 56 57 58 59 60 55 44 34 29 28 18 13 13 13 16 16 15 12 13 14 12 16 14 14 13 14 11 14 24 29 31 32 30 27 32 40 35 37 31 32 31 30 34
55 56 57 57 57 56 53 43 33 28 26 17 16 16 14 15 16 16 14 13 12 14 13 13 15 15 14 14 13 12 19 30 30 28 26 25 32 35 37 31 26 31 28 30
54 56 56 56 56 53 48 39 34 32 24 21 18 18 17 14 16 15 14 15 13 14 15 13 17 18 16 17 16 14 16 24 31 32 40 30 30 36 35 37 33 32 30 27
54 55 55 56 54 52 44 37 33 32 26 25 21 18 17 16 15 14 16 16 14 16 15 17 12 19 20 17 13 12 10 21 26 24 26 27 27 31 35 34 40 35 34 28
54 54 54 55 53 52 41 35 35 34 31 24 22 18 13 14 15 16 19 15 21 19 15 17 21 19 18 15 12 10 9 14 21 22 18 21 23 23 26 34 38 31 31 28
53 54 54 53 51 49 40 36 34 33 31 23 21 15 13 14 17 17 18 19 18 19 19 19 23 24 25 23 22 16 10 14 14 25 23 19 20 27 23 21 25 30 34 35
53 54 53 53 50 47 42 35 33 31 31 23 20 19 16 17 20 20 21 19 18 17 22 21 20 17 17 16 16 16 11 10 12 12 21 23 21 22 26 25 23 26 26 26
52 54 53 52 49 46 42 34 31 30 30 28 20 18 15 19 18 17 17 18 18 22 18 10 6 5 6 8 9 9 16 10 10 10 12 7 16 13 17 18 15 9 19 25
52 53 53 51 48 46 40 35 31 29 30 24 19 19 17 17 15 13 15 19 20 16 11 5 5 5 6 6 7 6 5 13 9 8 8 9 6 12 15 19 18 13 14 16
52 52 53 51 48 45 40 35 29 28 29 23 16 14 14 14 12 14 17 19 18 14 10 3 2 4 5 5 8 8 6 5 5 11 10 4 9 10 10 13 14 15 14 14
52 52 52 51 48 45 39 33 28 26 27 22 15 15 13 15 14 15 19 18 13 13 10 3 5 5 6 6 7 6 6 7 7 6 8 6 8 2 7 10 12 14 12 13
53 53 51 49 47 43 38 31 27 25 25 22 19 16 15 15 16 16 15 15 15 11 9 7 6 7 7 7 7 7 6 6 10 7 8 7 7 2 4 9 12 14 17 17
53 53 52 49 44 39 35 30 26 23 22 19 17 13 15 14 13 12 13 11 12 10 8 7 6 8 8 8 10 9 11 9 9 12 9 13 12 11 13 14 15 16 16 18
53 53 51 49 42 37 32 27 25 22 20 17 17 14 13 14 13 10 8 11 12 12 10 9 7 8 10 10 10 9 11 12 14 14 12 16 16 20 20 22 20 18 19 19
54 53 51 48 41 36 29 25 22 21 19 16 16 14 11 14 15 14 10 10 12 13 11 9 8 7 7 9 9 6 10 11 11 13 20 19 24 24 27 26 24 23 24 22
54 52 50 46 39 32 26 22 20 21 19 17 13 12 14 16 17 13 12 13 13 12 11 10 8 7 8 6 8 10 14 17 20 22 24 24 27 27 25 26 25 25 23 20
52 51 47 42 36 31 24 20 19 21 18 15 13 13 15 18 16 16 16 13 11 10 9 7 6 7 5 5 9 18 19 21 23 23 26 25 23 26 28 26 25 22 19 16
52 49 46 39 34 28 23 19 21 19 15 13 12 14 16 19 17 14 12 10 8 9 6 6 7 7 7 6 16 19 20 22 22 25 27 28 28 26 24 23 21 18 17 16
51 48 42 36 30 27 22 20 19 14 14 14 13 16 15 21 20 14 11 9 7 7 7 7 6 7 8 14 19 20 21 20 23 24 25 26 25 24 23 22 20 18 18 16
49 43 38 33 29 27 20 16 16 14 14 14 15 17 18 18 18 14 12 8 7 7 7 6 7 7 11 15 17 18 20 20 21 21 21 21 22 22 22 21 20 19 18 16
44 41 34 32 27 19 16 16 16 15 15 16 18 18 20 16 15 13 10 10 8 6 7 7 8 9 15 16 16 17 19 19 18 17 16 15 15 16 17 17 18 18 16 16
42 37 31 25 21 18 15 17 17 15 15 19 18 21 18 15 14 12 11 8 8 6 9 6 7 10 14 14 15 16 17 18 18 16 15 12 9 8 8 9 12 14 15 14
33 27 24 22 20 18 17 19 17 18 19 19 22 21 16 14 13 11 10 8 7 8 7 4 5 9 11 12 13 15 15 17 17 17 16 14 11 8 6 3 3 5 9 10
27 24 23 20 20 18 18 19 19 19 20 22 21 18 15 14 13 11 8 8 7 5 5 5 6 9 10 11 12 12 14 14 15 16 16 15 13 10 8 5 2 1 5 9
24 23 20 20 21 19 20 21 21 21 22 22 21 18 15 14 11 10 9 8 7 6 6 6 9 10 10 10 11 11 12 12 13 13 14 14 13 12 11 8 5 3 4 7
23 22 21 22 20 21 22 22 23 23 24 22 19 17 15 13 11 11 10 8 9 9 10 11 11 11 11 11 11 11 11 11 11 11 11 11 11 10 9 8 8 6 4 4
22 22 23 22 21 21 23 24 25 26 23 21 19 17 15 16 13 12 12 11 12 14 14 13 13 13 13 12 12 12 11 11 10 10 10 9 8 8 7 6 5 4 4 3
Wind_Direction
347 347 347 347 347 348 350 351 349 347 344 347 341 334 325 329 333 332 317 302 300 288 298 266 249 241 239 279 257 249 233 231 228 224 226 227 225 224 221 228 234 241 243 245
347 347 347 348 348 349 349 351 350 350 347 338 332 326 321 321 327 328 327 312 300 292 291 277 261 257 255 257 275 245 234 228 225 225 226 226 221 221 224 227 234 233 237 249
346 347 347 348 348 349 351 351 351 349 348 338 323 320 313 314 324 323 321 316 306 303 290 278 262 259 258 261 260 259 256 222 218 222 224 219 221 220 223 225 231 234 240 247
347 347 347 348 349 349 350 351 350 347 340 339 329 315 312 309 317 323 324 321 312 302 288 285 251 276 274 262 244 253 268 226 214 223 222 219 224 221 220 224 230 232 240 241
346 347 347 347 348 348 348 348 347 347 335 331 328 315 317 312 319 323 323 317 315 307 286 276 277 277 268 254 239 280 265 227 213 211 217 214 218 218 221 228 233 236 241 246
346 346 346 347 347 349 347 344 344 343 341 335 333 326 314 313 325 325 321 317 317 310 298 288 280 272 258 248 254 267 260 241 232 222 215 217 229 220 219 225 232 234 239 244
346 346 346 346 347 347 344 342 341 343 341 335 327 324 310 310 316 316 321 321 319 311 308 296 284 259 247 239 235 229 244 230 229 204 207 222 233 228 227 227 232 236 238 241
345 346 345 345 345 346 345 342 341 343 340 335 323 327 323 318 316 318 322 328 324 319 314 301 288 240 214 219 211 233 231 232 219 199 204 223 224 232 230 225 218 265 257 251
344 345 345 345 344 345 344 341 339 342 341 342 326 321 320 321 323 331 332 332 336 337 326 300 257 234 252 236 264 263 249 223 226 209 226 205 249 258 247 222 225 283 271 260
344 344 345 345 344 344 343 341 339 340 342 339 333 328 332 333 327 324 330 337 339 349 346 302 281 242 274 252 256 263 268 231 220 220 212 189 318 297 238 211 242 271 260 264
343 343 344 344 344 344 343 341 340 342 343 337 333 325 318 324 321 324 329 335 339 338 347 306 281 253 261 258 258 276 266 253 241 237 224 228 334 296 202 262 266 269 272 269
344 343 342 342 343 344 345 344 343 341 343 338 329 320 314 310 314 315 327 328 331 328 331 311 269 271 247 256 253 280 251 270 243 246 241 266 258 212 296 299 282 283 272 268
344 344 343 342 341 343 344 343 344 344 348 351 352 337 335 327 320 316 327 340 346 336 329 318 278 258 259 260 252 260 290 304 256 260 248 283 251 269 299 299 291 290 282 272
344 344 344 343 341 341 342 343 345 348 347 351 351 351 354 350 346 333 316 326 339 338 330 326 302 271 254 257 258 259 278 273 279 257 269 280 242 288 288 291 289 288 289 280
343 343 343 343 342 340 341 342 346 348 348 341 343 348 0 351 349 340 329 314 322 330 331 317 304 300 281 257 244 263 281 270 268 259 284 269 274 282 286 285 281 286 282 279
342 343 343 343 343 343 341 341 344 346 346 344 341 334 340 339 337 334 328 321 319 316 318 318 306 309 294 269 254 261 292 282 274 270 279 276 276 277 278 281 279 278 277 269
342 343 344 344 344 345 343 339 341 346 345 349 347 342 336 336 330 323 320 324 320 321 323 331 335 326 313 291 287 298 295 286 281 276 281 278 275 278 279 277 273 269 261 262
340 341 342 342 342 344 342 339 339 337 346 349 346 345 350 351 337 329 333 331 331 346 331 326 325 327 328 300 318 312 305 298 285 281 279 274 276 276 277 272 268 264 253 251
339 339 340 341 343 344 341 335 341 344 344 343 342 341 335 343 348 339 328 326 331 332 342 332 331 328 333 318 322 322 319 310 300 295 283 273 272 273 273 270 265 259 258 252
337 339 340 341 340 338 343 346 343 342 342 343 343 338 334 336 340 339 341 329 321 315 328 323 335 337 326 328 327 325 326 325 320 311 301 289 279 273 269 265 260 254 252 248
339 339 340 337 340 346 350 350 350 342 344 341 337 339 335 334 335 330 334 331 328 317 309 315 317 325 337 337 338 339 340 339 336 331 322 307 289 278 268 262 256 248 246 245
334 334 338 345 350 350 356 348 345 349 341 337 336 332 331 329 332 327 329 326 326 326 315 314 313 322 335 341 345 349 352 355 356 356 354 349 334 314 287 268 254 245 240 234
340 344 346 348 348 355 353 345 342 341 339 339 335 333 330 327 328 324 334 333 319 320 333 318 311 326 338 345 350 356 0 5 9 11 11 11 12 11 5 334 286 236 223 216
342 344 348 350 347 347 343 339 335 332 333 333 333 331 329 324 323 320 325 313 330 337 341 317 327 337 338 342 345 352 357 1 7 13 16 19 21 22 25 27 31 108 191 198
342 343 345 344 339 339 337 336 335 332 330 330 328 326 325 321 319 317 310 319 312 304 294 304 317 326 328 334 338 343 349 355 2 8 13 19 23 28 33 37 47 77 135 172
340 343 339 337 337 333 334 333 332 331 329 327 325 323 322 317 312 313 302 296 293 290 294 296 303 310 314 318 325 331 336 342 348 356 3 9 16 23 30 39 50 65 90 131
337 335 337 335 333 330 330 329 328 328 327 325 322 322 310 308 308 302 299 291 289 292 291 291 294 297 301 304 307 312 319 326 332 337 345 349 354 3 13 25 31 45 63 99